Weather History for De Kooy, Netherlands

Change the Weather History Date:

Sunday, October 14, 2012

  Actual Average Record
Temperature  
Mean Temperature 50 °F -  
Max Temperature 53 °F 53 °F 69 °F (2001)
Min Temperature 47 °F 44 °F 41 °F (2011)
Degree Days  
Heating Degree Days 15    
Moisture  
Dew Point 45 °F    
Average Humidity 84    
Maximum Humidity 94    
Minimum Humidity 71    
Precipitation  
Precipitation 0.31 in 0.11 in - ()
Sea Level Pressure  
Sea Level Pressure 29.40 in    
Wind  
Wind Speed 16 mph ()    
Max Wind Speed 30 mph    
Max Gust Speed 40 mph    
Visibility 5.8 miles    
Events Rain    
Averages and records for this station are not official NWS values.
T = Trace of Precipitation, MM = Missing Value Source: Averaged Metar Reports

Daily Weather History Graph

Daily Weather History Graph

Search for Another Location

Airport:

Trip Planner

Search our weather history database for the weather conditions in past years. The results will help you decide how hot, cold, wet, or windy it might be!

Date:

Astronomy

Oct. 14, 2012 Rise Set
Actual Time 8:05 AM CEST 6:46 PM CEST
Civil Twilight 7:30 AM CEST 7:21 PM CEST
Nautical Twilight 6:51 AM CEST 8:01 PM CEST
Astronomical Twilight 6:10 AM CEST 8:41 PM CEST
Moon 6:41 AM CEST (10/14) 5:57 PM CEST (10/14)
Length of Visible Light 11h 50m
Length of Day
10h 41m
Waning Crescent, 2% of the Moon is Illuminated
Oct 14
Waning Crescent
Oct 15
New
Oct 22
First Quarter
Oct 29
Full
Nov 7
Last Quarter

Hourly Weather History & Observations

Time (CEST) Temp. Dew Point Humidity Pressure Visibility Wind Dir Wind Speed Gust Speed Precip Events Conditions
12:25 AM 48.2 °F 44.6 °F 87% 29.47 in 6.2 mi SW 8.1 mph - N/A   Mostly Cloudy
12:55 AM 48.2 °F 44.6 °F 87% 29.47 in 6.2 mi West 11.5 mph - N/A Rain Light Rain
1:10 AM 50.0 °F 46.4 °F 87% 29.47 in 6.2 mi WSW 9.2 mph - N/A Rain Light Rain
1:18 AM 50.0 °F 44.6 °F 82% 29.47 in 6.2 mi West 9.2 mph - N/A   Mostly Cloudy
1:25 AM 50.0 °F 44.6 °F 82% 29.47 in 6.2 mi West 8.1 mph - N/A   Mostly Cloudy
1:46 AM 50.0 °F 46.4 °F 87% 29.47 in 6.2 mi West 8.1 mph - N/A   Mostly Cloudy
1:55 AM 50.0 °F 46.4 °F 87% 29.47 in 6.2 mi West 9.2 mph - N/A   Mostly Cloudy
1:59 AM 50.0 °F 44.6 °F 82% 29.47 in 6.2 mi West 10.4 mph - N/A   Mostly Cloudy
2:25 AM 48.2 °F 44.6 °F 87% 29.47 in 6.2 mi West 9.2 mph - N/A   Mostly Cloudy
2:47 AM 50.0 °F 44.6 °F 82% 29.44 in 6.2 mi West 12.7 mph - N/A   Mostly Cloudy
2:55 AM 50.0 °F 44.6 °F 82% 29.44 in 6.2 mi West 12.7 mph - N/A   Mostly Cloudy
2:57 AM 50.0 °F 44.6 °F 82% 29.44 in 6.2 mi WSW 11.5 mph - N/A   Mostly Cloudy
3:01 AM 50.0 °F 44.6 °F 82% 29.44 in 6.2 mi WSW 11.5 mph - N/A Rain Light Rain
3:15 AM 50.0 °F 42.8 °F 76% 29.44 in 6.2 mi West 12.7 mph - N/A   Scattered Clouds
3:25 AM 50.0 °F 44.6 °F 82% 29.44 in 6.2 mi West 13.8 mph - N/A   Mostly Cloudy
3:32 AM 50.0 °F 44.6 °F 82% 29.44 in 6.2 mi West 11.5 mph - N/A   Mostly Cloudy
3:36 AM 50.0 °F 42.8 °F 76% 29.44 in 6.2 mi West 11.5 mph - N/A   Mostly Cloudy
3:55 AM 50.0 °F 42.8 °F 76% 29.44 in 6.2 mi West 15.0 mph - N/A   Mostly Cloudy
4:10 AM 50.0 °F 44.6 °F 82% 29.44 in 6.2 mi West 17.3 mph - N/A   Mostly Cloudy
4:25 AM 50.0 °F 42.8 °F 76% 29.44 in 6.2 mi West 13.8 mph - N/A   Mostly Cloudy
4:34 AM 50.0 °F 44.6 °F 82% 29.44 in 6.2 mi West 16.1 mph - N/A   Mostly Cloudy
4:55 AM 50.0 °F 44.6 °F 82% 29.44 in 4.3 mi West 17.3 mph - N/A Rain Rain
5:00 AM 49 °F 45 °F 81% 29.45 in 9 mi West 15.7 mph - - Rain Light Rain Showers
5:00 AM 48.2 °F 44.6 °F 87% 29.44 in 6.2 mi West 16.1 mph - N/A Rain Light Rain
5:04 AM 50.0 °F 44.6 °F 82% 29.44 in 6.2 mi West 15.0 mph - N/A   Mostly Cloudy
5:08 AM 50.0 °F 44.6 °F 82% 29.44 in 6.2 mi West 15.0 mph - N/A   Mostly Cloudy
5:25 AM 48.2 °F 44.6 °F 87% 29.44 in 6.2 mi West 13.8 mph - N/A   Mostly Cloudy
5:27 AM 48.2 °F 42.8 °F 82% 29.44 in 6.2 mi West 13.8 mph - N/A   Mostly Cloudy
5:33 AM 48.2 °F 42.8 °F 82% 29.44 in 6.2 mi West 15.0 mph - N/A   Mostly Cloudy
5:37 AM 48.2 °F 44.6 °F 87% 29.44 in 6.2 mi West 13.8 mph - N/A   Mostly Cloudy
5:55 AM 48.2 °F 42.8 °F 82% 29.44 in 6.2 mi West 13.8 mph - N/A   Overcast
5:59 AM 48.2 °F 41.0 °F 76% 29.44 in 6.2 mi West 12.7 mph - N/A   Mostly Cloudy
6:25 AM 48.2 °F 42.8 °F 82% 29.42 in 6.2 mi West 11.5 mph - N/A   Mostly Cloudy
6:32 AM 48.2 °F 42.8 °F 82% 29.42 in 6.2 mi WSW 11.5 mph - N/A   Mostly Cloudy
6:42 AM 48.2 °F 42.8 °F 82% 29.42 in 6.2 mi West 13.8 mph - N/A   Mostly Cloudy
6:46 AM 48.2 °F 44.6 °F 87% 29.42 in 6.2 mi West 12.7 mph - N/A   Mostly Cloudy
6:47 AM 48.2 °F 44.6 °F 87% 29.42 in 6.2 mi West 12.7 mph - N/A   Mostly Cloudy
6:55 AM 48.2 °F 44.6 °F 87% 29.42 in 6.2 mi West 11.5 mph - N/A   Overcast
7:02 AM 48.2 °F 44.6 °F 87% 29.42 in 6.2 mi West 15.0 mph - N/A   Mostly Cloudy
7:03 AM 48.2 °F 44.6 °F 87% 29.42 in 3.7 mi West 15.0 mph - N/A   Mostly Cloudy
7:08 AM 48.2 °F 44.6 °F 87% 29.42 in 5.6 mi West 16.1 mph - N/A Rain Rain Showers
7:13 AM 48.2 °F 44.6 °F 87% 29.42 in 5.0 mi West 16.1 mph - N/A Rain Rain Showers
7:18 AM 48.2 °F 44.6 °F 87% 29.42 in 6.2 mi West 13.8 mph - N/A Rain Light Rain Showers
7:21 AM 48.2 °F 44.6 °F 87% 29.42 in 6.2 mi West 13.8 mph - N/A Rain Light Rain
7:25 AM 48.2 °F 44.6 °F 87% 29.42 in 6.2 mi West 13.8 mph - N/A Rain Light Rain
7:32 AM 48.2 °F 42.8 °F 82% 29.42 in 6.2 mi West 17.3 mph - N/A   Mostly Cloudy
7:41 AM 48.2 °F 42.8 °F 82% 29.42 in 6.2 mi West 18.4 mph - N/A   Mostly Cloudy
7:46 AM 48.2 °F 42.8 °F 82% 29.42 in 6.2 mi West 17.3 mph - N/A   Mostly Cloudy
7:55 AM 48.2 °F 42.8 °F 82% 29.42 in 6.2 mi West 17.3 mph - N/A   Mostly Cloudy
7:56 AM 48.2 °F 42.8 °F 82% 29.42 in 6.2 mi West 17.3 mph - N/A Rain Light Rain
7:58 AM 48.2 °F 42.8 °F 82% 29.42 in 6.2 mi West 17.3 mph - N/A Rain Light Rain
7:59 AM 48.2 °F 42.8 °F 82% 29.42 in 6.2 mi West 17.3 mph - N/A Rain Light Rain
8:00 AM 49 °F 43 °F 72% 29.43 in 15 mi West 17.9 mph - - Rain Light Rain Showers
8:15 AM 48.2 °F 42.8 °F 82% 29.42 in 6.2 mi West 16.1 mph - N/A   Mostly Cloudy
8:19 AM 48.2 °F 42.8 °F 82% 29.42 in 6.2 mi West 16.1 mph - N/A   Mostly Cloudy
8:25 AM 48.2 °F 42.8 °F 82% 29.42 in 6.2 mi West 16.1 mph - N/A   Mostly Cloudy
8:26 AM 48.2 °F 42.8 °F 82% 29.42 in 6.2 mi West 19.6 mph - N/A   Mostly Cloudy
8:38 AM 48.2 °F 42.8 °F 82% 29.42 in 6.2 mi West 19.6 mph - N/A   Mostly Cloudy
8:44 AM 48.2 °F 42.8 °F 82% 29.42 in 6.2 mi West 19.6 mph - N/A   Mostly Cloudy
8:47 AM 48.2 °F 42.8 °F 82% 29.42 in 6.2 mi West 19.6 mph - N/A   Mostly Cloudy
8:52 AM 48.2 °F 42.8 °F 82% 29.42 in 6.2 mi West 19.6 mph - N/A   Mostly Cloudy
8:55 AM 48.2 °F 42.8 °F 82% 29.42 in 6.2 mi West 19.6 mph - N/A   Mostly Cloudy
9:01 AM 48.2 °F 41.0 °F 76% 29.42 in 6.2 mi West 18.4 mph - N/A   Mostly Cloudy
9:25 AM 50.0 °F 42.8 °F 76% 29.42 in 6.2 mi West 19.6 mph - N/A   Overcast
9:42 AM 50.0 °F 42.8 °F 76% 29.42 in 6.2 mi West 21.9 mph - N/A   Mostly Cloudy
9:43 AM 50.0 °F 42.8 °F 76% 29.42 in 6.2 mi West 21.9 mph - N/A   Mostly Cloudy
9:44 AM 50.0 °F 42.8 °F 76% 29.42 in 6.2 mi West 21.9 mph - N/A   Mostly Cloudy
9:47 AM 50.0 °F 42.8 °F 76% 29.42 in 6.2 mi West 20.7 mph - N/A   Mostly Cloudy
9:55 AM 50.0 °F 42.8 °F 76% 29.42 in 6.2 mi West 20.7 mph - N/A   Overcast
9:56 AM 50.0 °F 42.8 °F 76% 29.42 in 6.2 mi West 20.7 mph - N/A   Mostly Cloudy
10:06 AM 50.0 °F 41.0 °F 71% 29.42 in 6.2 mi West 20.7 mph - N/A   Overcast
10:07 AM 50.0 °F 42.8 °F 76% 29.42 in 6.2 mi West 20.7 mph - N/A   Overcast
10:14 AM 50.0 °F 44.6 °F 82% 29.42 in 6.2 mi West 20.7 mph - N/A Rain Light Rain
10:24 AM 48.2 °F 44.6 °F 87% 29.42 in 4.3 mi West 23.0 mph - N/A Rain Light Rain
10:25 AM 48.2 °F 44.6 °F 87% 29.42 in 6.2 mi West 23.0 mph - N/A Rain Light Rain
10:26 AM 48.2 °F 44.6 °F 87% 29.42 in 6.2 mi West 23.0 mph - N/A Rain Light Rain
10:35 AM 48.2 °F 44.6 °F 87% 29.42 in 4.3 mi WSW 23.0 mph - N/A Rain Light Rain
10:38 AM 48.2 °F 44.6 °F 87% 29.42 in 6.2 mi WSW 23.0 mph - N/A Rain Light Rain Showers
10:39 AM 48.2 °F 44.6 °F 87% 29.42 in 6.2 mi West 21.9 mph 33.4 mph N/A Rain Light Rain Showers
10:40 AM 48.2 °F 44.6 °F 87% 29.42 in 3.7 mi West 23.0 mph - N/A Rain Light Rain Showers
10:41 AM 48.2 °F 44.6 °F 87% 29.42 in 3.7 mi West 23.0 mph - N/A Rain Light Rain Showers
10:42 AM 48.2 °F 42.8 °F 82% 29.42 in 6.2 mi West 23.0 mph - N/A Rain Light Rain Showers
10:43 AM 48.2 °F 44.6 °F 87% 29.42 in 6.2 mi West 23.0 mph - N/A Rain Light Rain Showers
10:45 AM 48.2 °F 44.6 °F 87% 29.42 in 6.2 mi West 23.0 mph - N/A Rain Light Rain Showers
10:55 AM 48.2 °F 44.6 °F 87% 29.42 in 6.2 mi West 21.9 mph - N/A Rain Light Rain
11:00 AM 49 °F 44 °F 77% 29.42 in 7 mi West 24.6 mph - - Rain Light Rain Showers
11:01 AM 48.2 °F 44.6 °F 87% 29.42 in 6.2 mi West 25.3 mph - N/A Rain Light Rain
11:09 AM 48.2 °F 44.6 °F 87% 29.42 in 6.2 mi West 25.3 mph - N/A   Light Drizzle
11:25 AM 48.2 °F 42.8 °F 82% 29.42 in 6.2 mi West 27.6 mph - N/A   Overcast
11:28 AM 48.2 °F 44.6 °F 87% 29.42 in 6.2 mi West 25.3 mph - N/A   Overcast
11:32 AM 48.2 °F 42.8 °F 82% 29.42 in 6.2 mi West 26.5 mph - N/A   Mostly Cloudy
11:36 AM 48.2 °F 42.8 °F 82% 29.42 in 6.2 mi West 28.8 mph - N/A   Mostly Cloudy
11:49 AM 48.2 °F 44.6 °F 87% 29.42 in 4.3 mi West 29.9 mph - N/A   Drizzle
11:55 AM 48.2 °F 42.8 °F 82% 29.42 in 5.6 mi West 29.9 mph - N/A   Drizzle
11:58 AM 48.2 °F 42.8 °F 82% 29.42 in 6.2 mi West 28.8 mph 40.3 mph N/A   Drizzle
12:11 PM 48.2 °F 42.8 °F 82% 29.42 in 6.2 mi West 28.8 mph - N/A Rain Light Rain
12:15 PM 48.2 °F 42.8 °F 82% 29.42 in 6.2 mi West 28.8 mph - N/A Rain Light Rain
12:19 PM 48.2 °F 42.8 °F 82% 29.42 in 6.2 mi West 28.8 mph 40.3 mph N/A Rain Light Rain Showers
12:25 PM 48.2 °F 42.8 °F 82% 29.42 in 6.2 mi West 29.9 mph - N/A Rain Light Rain
12:36 PM 48.2 °F 44.6 °F 87% 29.42 in 6.2 mi West 28.8 mph - N/A Rain Light Rain
12:40 PM 48.2 °F 44.6 °F 87% 29.42 in 6.2 mi West 28.8 mph - N/A Rain Light Rain
12:44 PM 48.2 °F 42.8 °F 82% 29.42 in 6.2 mi West 28.8 mph - N/A Rain Light Rain
12:55 PM 48.2 °F 42.8 °F 82% 29.42 in 6.2 mi West 27.6 mph - N/A Rain Light Rain
12:58 PM 48.2 °F 44.6 °F 87% 29.42 in 6.2 mi West 28.8 mph - N/A Rain Light Rain
1:01 PM 48.2 °F 44.6 °F 87% 29.42 in 5.6 mi West 28.8 mph - N/A Rain Light Rain
1:06 PM 48.2 °F 42.8 °F 82% 29.42 in 4.3 mi West 29.9 mph - N/A Rain Light Rain
1:11 PM 48.2 °F 42.8 °F 82% 29.39 in 5.0 mi West 27.6 mph - N/A Rain Rain
1:22 PM 48.2 °F 44.6 °F 87% 29.39 in 4.3 mi West 25.3 mph - N/A Rain Light Rain Showers
1:24 PM 48.2 °F 44.6 °F 87% 29.39 in 5.0 mi West 26.5 mph - N/A Rain Light Rain Showers
1:25 PM 48.2 °F 44.6 °F 87% 29.39 in 5.6 mi West 25.3 mph - N/A Rain Light Rain Showers
1:27 PM 48.2 °F 44.6 °F 87% 29.39 in 5.0 mi WSW 26.5 mph - N/A Rain Light Rain Showers
1:40 PM 48.2 °F 44.6 °F 87% 29.39 in 5.0 mi WSW 27.6 mph - N/A Rain Light Rain
1:42 PM 48.2 °F 44.6 °F 87% 29.39 in 5.0 mi WSW 26.5 mph - N/A Rain Light Rain
1:44 PM 50.0 °F 44.6 °F 82% 29.39 in 5.0 mi WSW 25.3 mph - N/A Rain Light Rain
1:48 PM 50.0 °F 44.6 °F 82% 29.39 in 5.0 mi WSW 24.2 mph - N/A Rain Light Rain
1:55 PM 50.0 °F 44.6 °F 82% 29.39 in 5.6 mi WSW 25.3 mph - N/A Rain Light Rain
1:56 PM 50.0 °F 44.6 °F 82% 29.39 in 4.3 mi WSW 27.6 mph - N/A Rain Light Rain
2:00 PM 49 °F 44 °F 77% 29.39 in 5 mi WSW 24.6 mph - - Rain Heavy Rain
2:09 PM 50.0 °F 44.6 °F 82% 29.39 in 5.6 mi WSW 27.6 mph - N/A   Drizzle
2:17 PM 50.0 °F 44.6 °F 82% 29.39 in 6.2 mi WSW 25.3 mph 36.8 mph N/A Rain Light Rain
2:25 PM 50.0 °F 44.6 °F 82% 29.39 in 6.2 mi WSW 25.3 mph - N/A Rain Light Rain
2:26 PM 50.0 °F 44.6 °F 82% 29.39 in 5.6 mi WSW 25.3 mph - N/A Rain Light Rain Showers
2:31 PM 50.0 °F 46.4 °F 87% 29.39 in 4.3 mi WSW 24.2 mph - N/A Rain Light Rain
2:36 PM 50.0 °F 46.4 °F 87% 29.39 in 5.0 mi WSW 24.2 mph - N/A Rain Light Rain Showers
2:37 PM 50.0 °F 46.4 °F 87% 29.39 in 5.6 mi WSW 24.2 mph - N/A Rain Light Rain Showers
2:38 PM 50.0 °F 46.4 °F 87% 29.39 in 5.6 mi WSW 25.3 mph - N/A Rain Light Rain Showers
2:42 PM 50.0 °F 46.4 °F 87% 29.39 in - WSW 25.3 mph - N/A Rain Light Rain Showers
2:43 PM 50.0 °F 46.4 °F 87% 29.39 in 3.1 mi WSW 26.5 mph - N/A Rain Light Rain
2:45 PM 50.0 °F 46.4 °F 87% 29.39 in 3.1 mi WSW 25.3 mph - N/A Rain Rain
2:55 PM 50.0 °F 44.6 °F 82% 29.39 in 3.7 mi WSW 25.3 mph - N/A Rain Light Rain Showers
2:57 PM 50.0 °F 44.6 °F 82% 29.36 in 5.0 mi WSW 25.3 mph - N/A Rain Light Rain
2:59 PM 50.0 °F 44.6 °F 82% 29.36 in 4.3 mi WSW 25.3 mph - N/A Rain Light Rain
3:00 PM 50.0 °F 46.4 °F 87% 29.36 in 4.3 mi WSW 25.3 mph - N/A Rain Light Rain
3:05 PM 50.0 °F 44.6 °F 82% 29.36 in 5.6 mi WSW 25.3 mph - N/A Rain Light Rain
3:11 PM 50.0 °F 46.4 °F 87% 29.36 in 4.3 mi WSW 25.3 mph - N/A   Light Drizzle
3:15 PM 50.0 °F 44.6 °F 82% 29.36 in 6.2 mi WSW 24.2 mph - N/A   Drizzle
3:19 PM 50.0 °F 46.4 °F 87% 29.36 in 4.3 mi WSW 24.2 mph 35.7 mph N/A   Drizzle
3:25 PM 50.0 °F 44.6 °F 82% 29.36 in 6.2 mi WSW 24.2 mph 35.7 mph N/A   Light Drizzle
3:27 PM 50.0 °F 44.6 °F 82% 29.36 in 5.6 mi WSW 24.2 mph - N/A   Drizzle
3:40 PM 50.0 °F 44.6 °F 82% 29.36 in 6.2 mi WSW 27.6 mph - N/A   Drizzle
3:41 PM 50.0 °F 46.4 °F 87% 29.36 in 3.1 mi WSW 25.3 mph 36.8 mph N/A   Drizzle
3:45 PM 50.0 °F 46.4 °F 87% 29.36 in - WSW 25.3 mph 36.8 mph N/A   Heavy Drizzle
3:46 PM 50.0 °F 46.4 °F 87% 29.36 in - WSW 23.0 mph 36.8 mph N/A Rain Light Rain
3:48 PM 50.0 °F 46.4 °F 87% 29.36 in 3.1 mi WSW 24.2 mph 36.8 mph N/A Rain Light Rain
3:49 PM 50.0 °F 46.4 °F 87% 29.36 in 2.8 mi WSW 25.3 mph 36.8 mph N/A Rain Light Rain
3:53 PM 50.0 °F 46.4 °F 87% 29.36 in 2.2 mi WSW 26.5 mph - N/A Rain Light Rain Showers
3:55 PM 48.2 °F 46.4 °F 93% 29.36 in - WSW 26.5 mph - N/A Rain Light Rain
3:56 PM 50.0 °F 46.4 °F 87% 29.36 in 2.2 mi WSW 26.5 mph - N/A Rain Heavy Rain Showers
3:57 PM 50.0 °F 46.4 °F 87% 29.36 in - WSW 26.5 mph - N/A Rain Heavy Rain Showers
3:58 PM 50.0 °F 46.4 °F 87% 29.36 in - WSW 25.3 mph - N/A   Heavy Drizzle
4:07 PM 50.0 °F 46.4 °F 87% 29.36 in 3.7 mi WSW 23.0 mph 34.5 mph N/A Rain Light Rain
4:18 PM 50.0 °F 46.4 °F 87% 29.36 in 6.2 mi WSW 24.2 mph 35.7 mph N/A Rain Light Rain
4:22 PM 50.0 °F 46.4 °F 87% 29.36 in 4.3 mi WSW 24.2 mph - N/A Rain Light Rain
4:25 PM 50.0 °F 44.6 °F 82% 29.36 in 6.2 mi WSW 24.2 mph - N/A Rain Light Rain
4:27 PM 50.0 °F 46.4 °F 87% 29.36 in - WSW 24.2 mph - N/A Rain Rain
4:28 PM 50.0 °F 46.4 °F 87% 29.36 in 3.7 mi WSW 24.2 mph - N/A   Heavy Drizzle
4:39 PM 50.0 °F 46.4 °F 87% 29.36 in 4.3 mi WSW 25.3 mph - N/A   Overcast
4:55 PM 50.0 °F 46.4 °F 87% 29.36 in 6.2 mi WSW 25.3 mph - N/A   Overcast
4:58 PM 50.0 °F 46.4 °F 87% 29.36 in 6.2 mi WSW 24.2 mph - N/A   Mostly Cloudy
4:59 PM 50.0 °F 46.4 °F 87% 29.36 in 6.2 mi SW 24.2 mph - N/A   Mostly Cloudy
5:00 PM 50 °F 47 °F 86% 29.36 in 6 mi SW 22.4 mph - - Rain Rain
5:00 PM 50.0 °F 46.4 °F 87% 29.36 in 6.2 mi SW 23.0 mph - N/A   Mostly Cloudy
5:15 PM 50.0 °F 48.2 °F 94% 29.36 in 6.2 mi SW 21.9 mph - N/A Rain Light Rain
5:19 PM 50.0 °F 48.2 °F 94% 29.36 in 3.1 mi SW 19.6 mph - N/A   Mostly Cloudy
5:24 PM 50.0 °F 48.2 °F 94% 29.33 in 4.3 mi SW 18.4 mph - N/A Rain Light Rain
5:25 PM 50.0 °F 48.2 °F 94% 29.33 in 4.3 mi SW 18.4 mph - N/A Rain Light Rain
5:39 PM 51.8 °F 48.2 °F 88% 29.33 in 6.2 mi SW 25.3 mph - N/A   Mostly Cloudy
5:41 PM 51.8 °F 48.2 °F 88% 29.36 in 4.3 mi WSW 25.3 mph - N/A Rain Light Rain
5:55 PM 50.0 °F 48.2 °F 94% 29.36 in 3.7 mi SW 21.9 mph - N/A Rain Rain Showers
6:01 PM 51.8 °F 48.2 °F 88% 29.36 in 6.2 mi WSW 21.9 mph - N/A Rain Light Rain Showers
6:11 PM 51.8 °F 48.2 °F 88% 29.36 in 6.2 mi WSW 20.7 mph - N/A Rain Light Rain
6:12 PM 51.8 °F 48.2 °F 88% 29.36 in 6.2 mi WSW 21.9 mph - N/A Rain Light Rain
6:14 PM 51.8 °F 48.2 °F 88% 29.36 in 6.2 mi WSW 21.9 mph - N/A Rain Light Rain
6:15 PM 51.8 °F 48.2 °F 88% 29.36 in 6.2 mi WSW 21.9 mph - N/A Rain Light Rain
6:16 PM 51.8 °F 48.2 °F 88% 29.36 in 6.2 mi WSW 21.9 mph - N/A Rain Light Rain
6:18 PM 51.8 °F 48.2 °F 88% 29.36 in 6.2 mi WSW 21.9 mph - N/A Rain Light Rain
6:22 PM 50.0 °F 46.4 °F 87% 29.36 in 6.2 mi WSW 20.7 mph - N/A Rain Light Rain
6:23 PM 50.0 °F 46.4 °F 87% 29.36 in 6.2 mi WSW 20.7 mph - N/A Rain Light Rain
6:24 PM 50.0 °F 46.4 °F 87% 29.36 in 4.3 mi WSW 20.7 mph - N/A   Mostly Cloudy
6:25 PM 51.8 °F 48.2 °F 88% 29.36 in 6.2 mi WSW 20.7 mph - N/A Rain Light Rain
6:35 PM 50.0 °F 46.4 °F 87% 29.36 in 6.2 mi SW 16.1 mph - N/A   Mostly Cloudy
6:45 PM 50.0 °F 46.4 °F 87% 29.36 in 6.2 mi SW 12.7 mph - N/A   Mostly Cloudy
6:55 PM 51.8 °F 46.4 °F 82% 29.36 in 6.2 mi SW 10.4 mph - N/A   Overcast
6:58 PM 51.8 °F 48.2 °F 88% 29.36 in 6.2 mi WSW 9.2 mph - N/A   Mostly Cloudy
7:01 PM 51.8 °F 48.2 °F 88% 29.36 in 6.2 mi WSW 11.5 mph - N/A   Mostly Cloudy
7:02 PM 51.8 °F 48.2 °F 88% 29.36 in 6.2 mi WSW 11.5 mph - N/A   Mostly Cloudy
7:10 PM 51.8 °F 48.2 °F 88% 29.36 in 6.2 mi WSW 12.7 mph - N/A   Mostly Cloudy
7:15 PM 51.8 °F 48.2 °F 88% 29.36 in 6.2 mi WSW 12.7 mph - N/A   Overcast
7:21 PM 51.8 °F 48.2 °F 88% 29.36 in 6.2 mi WSW 12.7 mph - N/A   Mostly Cloudy
7:25 PM 51.8 °F 48.2 °F 88% 29.36 in 6.2 mi WSW 12.7 mph - N/A   Mostly Cloudy
7:47 PM 51.8 °F 48.2 °F 88% 29.36 in 4.3 mi WSW 12.7 mph - N/A Rain Light Rain
7:48 PM 51.8 °F 48.2 °F 88% 29.36 in 6.2 mi WSW 12.7 mph - N/A Rain Light Rain
7:55 PM 51.8 °F 48.2 °F 88% 29.36 in 4.3 mi WSW 11.5 mph - N/A Rain Rain
7:56 PM 51.8 °F 48.2 °F 88% 29.36 in 6.2 mi WSW 11.5 mph - N/A Rain Rain
7:57 PM 51.8 °F 48.2 °F 88% 29.36 in 6.2 mi WSW 11.5 mph - N/A Rain Rain
8:00 PM 51 °F 48 °F 84% 29.37 in 7 mi WSW 11.2 mph - - Rain Rain Showers
8:03 PM 51.8 °F 48.2 °F 88% 29.36 in 6.2 mi WSW 11.5 mph - N/A Rain Rain Showers
8:07 PM 51.8 °F 48.2 °F 88% 29.36 in 6.2 mi WSW 11.5 mph - N/A Rain Light Rain
8:11 PM 51.8 °F 48.2 °F 88% 29.36 in 6.2 mi WSW 10.4 mph - N/A   Mostly Cloudy
8:17 PM 51.8 °F 48.2 °F 88% 29.36 in 6.2 mi WSW 11.5 mph - N/A   Mostly Cloudy
8:25 PM 51.8 °F 48.2 °F 88% 29.36 in 6.2 mi West 8.1 mph - N/A   Mostly Cloudy
8:36 PM 51.8 °F 46.4 °F 82% 29.36 in 6.2 mi West 4.6 mph - N/A Rain Light Rain
8:55 PM 51.8 °F 48.2 °F 88% 29.36 in 6.2 mi West 6.9 mph - N/A   Overcast
8:57 PM 51.8 °F 48.2 °F 88% 29.36 in 6.2 mi West 5.8 mph - N/A   Mostly Cloudy
9:10 PM 51.8 °F 46.4 °F 82% 29.36 in 6.2 mi WNW 3.5 mph - N/A   Mostly Cloudy
9:25 PM 51.8 °F 46.4 °F 82% 29.36 in 6.2 mi NW 4.6 mph - N/A Rain Light Rain
9:30 PM 51.8 °F 46.4 °F 82% 29.36 in 6.2 mi NW 4.6 mph - N/A   Light Drizzle
9:55 PM 51.8 °F 46.4 °F 82% 29.36 in 6.2 mi NW 8.1 mph - N/A   Mostly Cloudy
9:59 PM 51.8 °F 46.4 °F 82% 29.36 in 6.2 mi NW 6.9 mph - N/A   Overcast
10:03 PM 51.8 °F 46.4 °F 82% 29.36 in 6.2 mi NW 6.9 mph - N/A   Overcast
10:18 PM 51.8 °F 46.4 °F 82% 29.36 in 6.2 mi NW 6.9 mph - N/A   Mostly Cloudy
10:25 PM 51.8 °F 46.4 °F 82% 29.36 in 6.2 mi NW 6.9 mph - N/A   Mostly Cloudy
10:27 PM 51.8 °F 46.4 °F 82% 29.36 in 6.2 mi NW 8.1 mph - N/A Rain Light Rain
10:41 PM 51.8 °F 46.4 °F 82% 29.39 in 6.2 mi NNW 5.8 mph - N/A Rain Light Rain
10:55 PM 51.8 °F 46.4 °F 82% 29.39 in 6.2 mi NNW 6.9 mph - N/A   Mostly Cloudy
11:00 PM 52 °F 46 °F 74% 29.39 in 19 mi NNW 6.7 mph - - Rain Rain
11:25 PM 53.6 °F 44.6 °F 72% 29.39 in 6.2 mi NW 6.9 mph - N/A   Overcast
11:36 PM 51.8 °F 46.4 °F 82% 29.39 in 4.3 mi NW 8.1 mph - N/A Rain Light Rain
11:40 PM 51.8 °F 48.2 °F 88% 29.39 in 6.2 mi NW 9.2 mph - N/A Rain Light Rain Showers
11:48 PM 51.8 °F 46.4 °F 82% 29.39 in 6.2 mi WNW 5.8 mph - N/A Rain Light Rain Showers
11:55 PM 50.0 °F 46.4 °F 87% 29.39 in 6.2 mi WNW 4.6 mph - N/A   Mostly Cloudy
11:57 PM 51.8 °F 46.4 °F 82% 29.39 in 6.2 mi WNW 4.6 mph - N/A   Mostly Cloudy